Время (UTC), дата Ветер
(°,м/с) 
Видим.   Явления Облачность Т
(°С)
Тd
(°С)
f(%) Тe
(°С)
Pmin
(гПа)
dP
(гПа)
Po
(мм)
O2
(г/м3)
Тmin Tmax R s Состояние
почвы
00 01.04.17 060 (СВ) 10 км    ясно 
+1.7 -2.4 74 +2  1023.6  -0.3  765  307           
03 01.04.17 120 (ЮВ) 10 км    ясно 
+0.1 -4.7 70 +1  1023.1  -0.5  765  309  +0         
06 01.04.17 300 (СЗ) 10 км    1/0 средняя 
[Ac trans]
+4.1 -3.8 56 +5  1023.8  0.7  765  304           
09 01.04.17 050 (СВ) 10 км    3/0 средняя, верхняя 
[Ac trans|Ci fib]
+11 -1.4 42 +12  1023.5  -0.2  765  296           
12 01.04.17 310 (СЗ) 10 км    8/3 1000 м средняя 
[Sc|Ac trans]
+13.5 -6.4 24 +14  1022.5  -1  764  294           
15 01.04.17 040 (СВ) 10 км    8/4 1000 м средняя, верхняя 
[Sc|Ac trans|Ci fib]
+12.1 -1.4 39 +13  1022.7  0.2  764  295    +14.6       
18 01.04.17 050 (СВ) 10 км    9/9 1000 м 
[Sc]
+9.9 +0.6 52 +10  1024.1  1.4  765  298           
21 01.04.17 050 (СВ) 10 км    5/0 средняя 
[Ac trans]
+7.7 -0.5 56 +9  1024.7  0.5  766  300           
00 02.04.17 080 (В) 10 км    ясно 
+5.6 -1.4 61 +5  1024.8  0.1  766  303           
03 02.04.17 110 (В) 10 км    ясно 
+3.4 -1.6 70 +3  1025.9  1.1  767  305  +3.3         
06 02.04.17 100 (В) 10 км    ясно 
+8.7 +1.1 59 +10  1026.6  0.7  767  299  +3         
09 02.04.17 140 (ЮВ) 10 км    ясно 
+14.3 -0.2 37 +15  1026.6  0.1  767  294           
12 02.04.17 080 (В) 10 км    3/0 верхняя 
[Ci fib]
+16.3 -0.7 31 +17  1025.3  -1.8  766  291           
15 02.04.17 090 (В) 10 км    3/0 
+16.1 +1.1 36 +17  1024.6  -0.7  766  291    +17.1       
18 02.04.17 070 (В) 10 км    ясно 
+12.8 +0.6 43 +13  1025  0.3  766  295           
21 02.04.17 090 (В) 10 км    ясно 
+9.3 +5.3 76 +10  1025.1  766  298           
00 03.04.17 060 (СВ) 10 км    ясно 
+5.7 +1.4 74 +7  1025.2  0.1  766  302           
03 03.04.17 тихо ()   10 км    ясно 
+4.6 +2.6 87 +5  1025.3  0.1  766  303  +4.6        сухая 
06 03.04.17 000 (С) 95  0100 м    1/0 
+2.5   1025.5  0.2  766    +3.9         
09 03.04.17 040 (СВ) 10 км    ясно 
+15.7 +1.1 37 +16  1024.7  -0.6  766  292           
12 03.04.17 320 (СЗ) 10 км    ясно 
+18.8 -0.9 26 +20  1023.4  -1.3  765  288           
15 03.04.17 110 (В) 72  10 км    ясно 
+18.1 +0 29 +15  1022.8  -0.6  764  289    +18.9       
18 03.04.17 310 (СЗ) 10 км    ясно 
+13.4 +4.8 56 +14  1024.1  1.2  765  293           
21 03.04.17 310 (СЗ) 10 км    ясно 
+8.7 +6.1 84 +9  1024.9  0.7  766  298           
00 04.04.17 тихо ()   10 км    ясно 
+7.2 +5.5 89 +7  1025  0.1  766  300           
03 04.04.17 тихо ()   4000 м  дымка  ясно 
+5.5 +5 97 +6  1025.1  0.1  766  302  +5.2        сухая 
06 04.04.17 250 (З) 10 км    ясно 
+10.5 +6.4 76 +12  1025.5  0.5  766  296  +4.9         
09 04.04.17 290 (З) 10 км    ясно 
+17.1 +5 45 +18  1025.3  -0.1  766  290           
12 04.04.17 090 (В) 10 км    ясно 
+20 +4 35 +20  1024.3  -1  766  287           
15 04.04.17 340 (С) 10 км    ясно 
+19.4 +4.5 37 +20  1024.3  766  287    +20.8       
18 04.04.17 030 (СВ) 10 км    ясно 
+14.1 +5 54 +15  1025.6  1.2  767  293           
21 04.04.17 030 (СВ) 10 км    ясно 
+10.5 +4.8 68 +12  1025.8  0.2  767  297           
00 05.04.17 тихо ()   10 км    ясно 
+7.9 +4.8 81 +8  1025.7  -0.2  767  299           
03 05.04.17 090 (В) 10 км    ясно 
+7.5 +4 78 +7  1025.4  -0.3  766  300  +6.2        сухая 
06 05.04.17 100 (В) 10 км    10/1 300 м верхняя 
[St|Ci fib]
+11.3 +7.6 78 +12  1025.1  -0.2  766  295  +5.6         
09 05.04.17 100 (В) 10 км    10/0 верхняя 
[Ci]
+18 +6.1 46 +19  1023.3  -1.7  765  288           
12 05.04.17 120 (ЮВ) 3{10}  10 км    10/0 средняя, верхняя 
[Ac trans|Ci fib]
+20.8 +2.5 30 +21  1020.3  -3  763  285           
15 05.04.17 070 (В) 10 км    10/3 1000 м средняя, верхняя 
[Sc|Ac trans|Ci fib]
+17.5 +6.8 49 +18  1019.1  -1.2  762  287    +21       
18 05.04.17 090 (В) 10 км    10/0 средняя, верхняя 
[Ac trans|Ci fib]
+11.6 +5.8 68 +11  1018.4  -0.8  761  293           
21 05.04.17 070 (В) 10 км    10/0 средняя, верхняя 
[Ac trans|Ci fib]
+9.5 +5.6 77 +9  1016.2  -2.2  759  295           
00 06.04.17 120 (ЮВ) 10 км    10/3 1000 м средняя, верхняя 
[Sc|Ac trans|Ci fib]
+7.8 +5.3 84 +9  1014  -2.2  758  296           
03 06.04.17 100 (В) 10 км    10/4 1000 м средняя, верхняя 
[Sc|Ac trans|Ci fib]
+6.7 +4.6 86 +7  1012.6  -1.4  757  297  +6.6         
06 06.04.17 120 (ЮВ) 10 км    10/0 
+10.4 +5.9 74 +10  1011.5  -1.1  756  292  +6.5         
09 06.04.17 130 (ЮВ) 10 км    10/5 1000 м средняя, верхняя 
[Sc|Ac trans|Ci fib]
+16.7 +8.2 57 +17  1010  -1.4  755  285           
12 06.04.17 180 (Ю) 10 км    9/3 1000 м средняя, верхняя 
[Sc|Ac trans|Ci fib]
+22.6 +9 42 +23  1008.1  -1.8  754  279           
15 06.04.17 250 (З) 10 км    10/6 1000 м средняя, верхняя 
[Sc|Ac trans|Ci fib]
+21.2 +1.5 27 +21  1008.6  0.5  754  282    +24       
18 06.04.17 310 (СЗ) 10 км    10/3 1000 м верхняя 
[Sc|Cs]
+17.5 +2.3 36 +19  1009.7  755  285           
21 06.04.17 240 (ЮЗ) 10 км    9/6 1000 м средняя 
[Sc|Ac trans]
+15.5 +2.7 42 +16  1009.7  755  287           
00 07.04.17 310 (СЗ) 10 км    10/8 1000 м средняя 
[Sc|Ac und]
+12.9 +5.9 62 +14  1009.8  755  289           
03 07.04.17 350 (С) 10 км    10/8 1000 м средняя 
[Sc|Ac und]
+10.1 +7 81 +11  1009.8  755  292  +10.1         
06 07.04.17 090 (В) 10 км  в посл. час ливневой дождь  10/8 1000 м кучево-дожд., средняя 
[Cb cap|Ac und]
+10.6 +7.4 81 +12  1010.8  755  292  +9.3         
09 07.04.17 110 (В) 10 км  {ливн. осадки}  9/4 1000 м средняя 
[Sc|Ac trans]
+14.7 +8.4 66 +16  1009.6  -1.1  755  287           
12 07.04.17 090 (В) 10 км  {ливн. осадки}  10/8 1000 м кучево-дожд., средняя 
[Cb cap|Ac und]
+17.2 +9.4 60 +19  1009.1  -0.5  754  284           
15 07.04.17 220 (ЮЗ) 10 км  {ливн. осадки}  10/8 1000 м кучево-дожд., средняя 
[Cb cap|Ac und]
+15.9 +4.6 47 +17  1009.8  0.7  755  287    +18  0.0     
18 07.04.17 280 (З) 10 км  {ливн. осадки}  10/10 1000 м кучево-дожд. 
[Cb cap]
+12.1 +10.5 90 +14  1012  2.1  756  290           
21 07.04.17 240 (ЮЗ) 10 км    3/0 средняя 
[Ac trans]
+10.8 +7.7 81 +11  1012.4  0.4  757  292           
00 08.04.17 240 (ЮЗ) 10 км    ясно 
+9.3 +6.2 81 +10  1012.3  -0.1  757  294           
03 08.04.17 тихо ()   10 км    3/3 300 м 
[St]
+8.4 +6.8 90 +8  1012.3  757  295  +8    0.0    влажная 
06 08.04.17 050 (СВ) 10 км    10/10 600 м 
[Sc]
+9.7 +6.2 79 +11  1012.4  0.1  757  293  +7.8         
09 08.04.17 050 (СВ) н/о    н/о 
+10.7 +6.6 76 +12  1011.3  -0.4  756  292           
12 08.04.17 350 (С) 4000 м  слаб. дождь  10/10 300 м 
[Frnb|Ns]
+10.9 +8.6 86 +12  1011.3  -0.8  756  291           
15 08.04.17 320 (СЗ) 4000 м  слаб. ливневой дождь  10/10 300 м кучево-дожд. 
[Cb cap]
+8.6 +7.6 93 +9  1011.4  0.1  756  294    +11.5     
18 08.04.17 330 (СЗ) 10 км  в посл. час ливневой дождь  10/10 300 м кучево-дожд. 
[Cb cap]
+8.1 +6.8 91 +8  1012.5  1.1  757  295           
21 08.04.17 290 (З) 4000 м  слаб. дождь  10/10 300 м 
[Frnb|Ns]
+6.6 +5.9 95 +6  1013.5  757  297           
00 09.04.17 220 (ЮЗ) 10 км  {дождь}  10/8 600 м средняя 
[Sc|Ac und]
+6.5 +5.8 95 +6  1013.9  0.4  758  297           
03 09.04.17 230 (ЮЗ) 10 км    10/8 600 м кучево-дожд., средняя 
[Cb cap|Ac und]
+6.7 +5.1 90 +8  1014.3  0.4  758  297  +6.5       
06 09.04.17 200 (Ю) 10 км    8/4 600 м кучево-дожд., средняя, верхняя 
[Cb cap|Ac trans|Ci fib]
+8.8 +4.3 73 +9  1015.1  0.8  759  295           
09 09.04.17 210 (ЮЗ) 5-12{12}  10 км    8/8 1000 м кучево-дожд. 
[Cb cap]
+10.8 +4.8 66 +10  1015.8  0.7  759  294           
12 09.04.17 250 (З) 4{12}  10 км    9/6 1000 м кучево-дожд., средняя 
[Cb cap|Ac trans]
+11.7 +4.6 62 +11  1016.8  760  293           
15 09.04.17 220 (ЮЗ) 3{10}  4000 м  слаб. ливневой дождь  8/5 600 м кучево-дожд., средняя 
[Cb cap|Ac trans]
+9.5 +5.6 77 +9  1017.8  1.6  761  295    +12.6  0.3     
18 09.04.17 190 (Ю) 10 км  в посл. час ливневой дождь  10/8 600 м кучево-дожд., средняя 
[Cb cap|Ac und]
+8.5 +5.1 79 +9  1020.5  763  297           
21 09.04.17 180 (Ю) 10 км    10/3 1000 м верхняя 
[Sc|Ci fib]
+7.3 +4.8 84 +8  1020.9  0.4  763  299           
00 10.04.17 190 (Ю) 10 км    4/4 1000 м 
[Sc]
+6.8 +4.2 83 +8  1021.1  0.2  763  299           
03 10.04.17 240 (ЮЗ) 10 км    10/4 600 м верхняя 
[Sc|Ci fib]
+7.3 +4.8 84 +8  1021.9  0.8  764  299  +6.8    0.4    влажная 
06 10.04.17 120 (ЮВ) 10 км  {дождь}  10/1 600 м средняя, верхняя 
[Sc|Ac trans|Ci fib]
+10.2 +5.9 75 +11  1023  1.2  765  296  +6.8         
09 10.04.17 250 (З) 10 км    10/5 1000 м кучево-дожд., средняя, верхняя 
[Cb cap|Ac trans|Ci fib]
+12.8 +2.9 51 +12  1023.1  0.1  765  294           
12 10.04.17 250 (З) 4000 м  слаб. дождь  10/8 200 м средняя 
[Frnb|Ac As]
+11.1 +4.5 64 +11  1023.2  0.1  765  295           
15 10.04.17 270 (З) 10 км  {дождь}  10/3 600 м средняя, верхняя 
[Sc|Ac trans|Ci fib]
+11.5 +4 60 +11  1022.9  -0.3  764  295    +13.1  0.4     
18 10.04.17 230 (ЮЗ) 10 км  {дождь}  3/0 средняя, верхняя 
[Ac trans|Ci fib]
+8.3 +4.5 77 +8  1023.7  0.7  765  298           
21 10.04.17 250 (З) 10 км    1/0 верхняя 
[Ci fib]
+6.9 +3.9 81 +8  1023.6  -0.1  765  300           
00 11.04.17 250 (З) 10 км    9/9 300 м 
[St]
+6.9 +3.9 81 +8  1023  -0.6  764  300           
03 11.04.17 270 (З) 10 км    10/0 
+6.9 +4.4 84 +7  1022.6  -0.4  764  300  +6.3        влажная 
06 11.04.17 220 (ЮЗ) 10 км    9/9 1000 м 
[Sc]
+10.7 +5.5 70 +11  1023.2  0.7  765  296           
09 11.04.17 290 (З) 10 км    10/10 1000 м кучево-дожд. 
[Cb cap]
+12.1 +4.1 58 +12  1022.6  -0.6  764  294           
12 11.04.17 240 (ЮЗ) 10 км    9/9 1000 м 
[Sc diur, vesp]
+13.4 +4.3 54 +13  1021.7  -0.9  764  293           
15 11.04.17 270 (З) 10 км    8/8 600 м 
[Sc diur, vesp]
+12.5 +3 52 +12  1021.7  764  294    +15       
18 11.04.17 250 (З) 10 км    ясно 
+9.4 +2.9 64 +10  1022.8  764  297           
21 11.04.17 240 (ЮЗ) 10 км    ясно 
+7.4 +3.2 75 +7  1022.5  -0.3  764  299           
00 12.04.17 250 (З) 10 км    ясно 
+7 +3.8 80 +8  1022.1  -0.4  764  300           
03 12.04.17 100 (В) 10 км    ясно 
+5.7 +4.1 89 +7  1021.7  -0.4  764  301  +5        влажная 
06 12.04.17 160 (Ю) 10 км    4/0 верхняя 
[Ci fib]
+11.4 +4.3 62 +13  1021.3  -0.3  763  295  +5         
09 12.04.17 210 (ЮЗ) 10 км    6/0 верхняя 
[Ci fib]
+15.9 +4.3 46 +17  1020.3  -0.9  763  290           
12 12.04.17 340 (С) 10 км    10/0 
+19.2 +0.9 29 +20  1018.1  -2.2  761  286           
15 12.04.17 320 (СЗ) 10 км    10/0 средняя, верхняя 
[Ac trans|Ci fib]
+17.3 +1.1 34 +19  1017  -1.1  760  288    +19.5       
18 12.04.17 060 (СВ) 10 км    10/0 средняя, верхняя 
[Ac trans|Ci fib]
+13.1 +5.1 58 +14  1018.3  1.2  761  292           
21 12.04.17 030 (СВ) 10 км    10/0 верхняя 
[Ci fib]
+10.6 +3.8 63 +12  1017.7  -0.6  761  294           
00 13.04.17 тихо ()   10 км    6/0 
+7.8 +4.6 80 +8  1017.1  -0.7  760  297           
03 13.04.17 130 (ЮВ) 10 км    10/3 1000 м верхняя 
[Sc|Ci fib]
+6.9 +3.9 81 +8  1015.8  -1.3  759  298  +6.8        сухая 
06 13.04.17 060 (СВ) 10 км    5/0 верхняя 
[Cc]
+11.7 +5 63 +12  1015.1  -0.7  759  292  +6.8         
09 13.04.17 080 (В) 10 км    10/0 верхняя 
[Ci fib]
+18.8 +6.7 45 +20  1013.6  -1.4  758  285           
12 13.04.17 330 (СЗ) 10 км    10/0 верхняя 
[Ci]
+23.9 +5.9 31 +24  1010.7  -2.8  755  279           
15 13.04.17 120 (ЮВ) 10 км    10/9 1000 м средняя 
[Sc|Ac As]
+21.9 +6.1 36 +22  1008.4  -2.3  754  280    +24.5       
18 13.04.17 280 (З) 10 км    10/10 1000 м 
[Sc]
+19 +8.1 49 +21  1007.3  -1.2  753  282           
21 13.04.17 290 (З) 10 км    10/10 1000 м 
[Sc]
+16.8 +6.4 50 +18  1006.1  -1.2  752  284           
00 14.04.17 320 (СЗ) 4000 м    10/10 600 м кучево-дожд. 
[Cb cap]
+12.5 +8.1 75 +13  1005.7  -8.2  752  288           
03 14.04.17 300 (СЗ) 10 км  слаб. ливневой дождь  10/10 600 м кучево-дожд. 
[Cb cap]
+10.9 +9.3 90 +11  1006.2  0.5  752  290  +10.9    26     
06 14.04.17 300 (СЗ) 4000 м  слаб. ливневой дождь  10/10 600 м кучево-дожд. 
[Cb cap]
+11.2 +9.8 91 +12  1007.2  753  290  +10.7         
09 14.04.17 300 (СЗ) 10 км  {ливн. осадки}  10/3 600 м средняя 
[Cu med, cong|Ac As]
+14.9 +10.3 74 +16  1007.6  0.4  753  286           
12 14.04.17 290 (З) 10 км  {ливн. осадки}  10/5 600 м средняя, верхняя 
[Cu med, cong|Ac trans|Ci fib]
+18.6 +8.8 53 +20  1007.3  -0.3  753  282           
15 14.04.17 240 (ЮЗ) 10 км    9/8 600 м кучево-дожд., средняя 
[Cb cap|Ac trans]
+15.7 +10.9 73 +18  1008.4  1.1  754  285    +19.7     
18 14.04.17 260 (З) 10 км    3/0 средняя 
[Ac trans]
+12.1 +7.8 75 +12  1011.3  2.8  756  290           
21 14.04.17 240 (ЮЗ) 10 км    3/0 средняя 
[Ac trans]
+10.5 +6.2 75 +10  1012.5  1.2  757  293           
00 15.04.17 270 (З) 5-10{10}  10 км    9/9 1000 м 
+10.4 +3.8 64 +9  1013  0.5  757  293           
03 15.04.17 250 (З) 5-10{10}  10 км    10/10 600 м кучево-дожд. 
[Cb cap]
+10.5 +2.3 57 +9  1014  758  294  +9.9        влажная 
06 15.04.17 260 (З) 3{10}  10 км    10/10 600 м 
[Sc]
+11.3 +6.2 71 +11  1015.6  1.6  759  293           
09 15.04.17 240 (ЮЗ) 4-11{11}  10 км    8/6 600 м средняя 
[Cu med, cong|Ac trans]
+15.1 +5.5 53 +15  1015.8  0.3  759  289           
12 15.04.17 310 (СЗ) 4-10{12}  10 км    10/10 600 м кучево-дожд. 
[Cb cap]
+15.5 +3.2 44 +15  1016.1  0.3  759  289           
15 15.04.17 280 (З) 3{10}  10 км    8/4 600 м кучево-дожд., средняя 
[Cb cap|Ac trans]
+14.9 +3.8 47 +15  1016.8  0.7  760  290    +16.6       
18 15.04.17 240 (ЮЗ) 2{10}  10 км    3/3 1000 м 
[Sc]
+10.2 +5.5 73 +10  1018.6  1.7  761  295           
21 15.04.17 240 (ЮЗ) 10 км    4/0 верхняя 
[Ci fib]
+8.7 +5.3 79 +10  1019.2  0.5  762  297           
00 16.04.17 270 (З) 10 км    3/0 средняя 
[As trans]
+7.6 +5.3 85 +9  1018.9  -0.3  761  298           
03 16.04.17 220 (ЮЗ) 10 км    3/3 1000 м 
[Sc]
+6.8 +5 88 +8  1019.6  0.7  762  299  +6.5        сухая 
06 16.04.17 260 (З) 10 км    ясно 
+11.8 +5.8 67 +13  1019.6  762  293  +6.5         
09 16.04.17 280 (З) 10 км    1/1 600 м 
[Cu med, cong]
+17.4 +5.5 45 +18  1018  -1.4  761  287           
12 16.04.17 180 (Ю) 10 км    3/3 600 м 
[Cu med, cong]
+19.5 +3.8 35 +21  1016.1  -1.9  759  285           
15 16.04.17 250 (З) 10 км    3/1 600 м верхняя 
[Cu med, cong|Cc]
+19 +2.7 34 +20  1015.3  -0.8  759  285    +19.6       
18 16.04.17 260 (З) 10 км    1/0 средняя 
[Ac trans]
+13.9 +5.1 55 +15  1015.2  -0.2  759  290           
21 16.04.17 090 (В) 10 км    ясно 
+10.9 +5.5 69 +12  1014.4  -1.2  758  293           
00 17.04.17 050 (СВ) 10 км    ясно 
+8.9 +4.3 73 +10  1013.1  -1.1  757  295           
03 17.04.17 150 (ЮВ) 10 км    5/0 средняя, верхняя 
[Ac trans|Ci fib]
+8.7 +5.1 78 +10  1012.8  -0.3  757  295  +7.9        сухая 
06 17.04.17 090 (В) 10 км    10/0 средняя, верхняя 
[Ac trans|Ci fib]
+17.2 +5.5 46 +19  1012.6  -0.1  757  286           
09 17.04.17 240 (ЮЗ) 10 км    10/4 1000 м средняя, верхняя 
[Sc|Ac trans|Ci fib]
+22.6 +4 30 +23  1011.8  -0.7  756  281           
12 17.04.17 280 (З) 10 км    10/6 1000 м средняя 
[Sc|Ac und]
+23.5 +4.3 29 +24  1010.2  -1.6  755  280           
15 17.04.17 070 (В) 10 км    10/5 1000 м средняя, верхняя 
[Sc|Ac trans|Ci fib]
+21.8 +5.1 34 +22  1009.9  -0.3  755  281    +24.5       
18 17.04.17 тихо ()   10 км    ясно 
+18.1 +9.4 57 +18  1010.7  0.7  755  284           
21 17.04.17 280 (З) 10 км    ясно 
+15.4 +5 50 +16  1010.4  -0.3  755  287           
00 18.04.17 тихо ()   10 км  в посл. час ливневой дождь  8/8 1000 м 
[Sc]
+14.5 +8.4 67 +15  1009.8  -0.6  755  287           
03 18.04.17 070 (В) 10 км    10/5 600 м кучево-дожд., верхняя 
[Cb cap|Ci fib]
+13.6 +8.9 73 +15  1009.6  -0.3  755  288  +13.6    0.0    мокрая 
06 18.04.17 120 (ЮВ) 10 км    10/5 1000 м кучево-дожд., средняя, верхняя 
[Cb cap|Ac trans|Ci fib]
+17.1 +7.8 54 +18  1009  -0.5  754  285           
09 18.04.17 130 (ЮВ) 3{10}  10 км    8/4 1000 м кучево-дожд., средняя, верхняя 
[Cb cap|Ac trans|Ci fib]
+24.1 +8.4 37 +24  1007.5  -1.4  753  277           
12 18.04.17 220 (ЮЗ) 3{12}  10 км    10/3 1000 м верхняя 
[Sc|Ci fib]
+25.2 +4.8 27 +25  1006.1  -1.3  752  277           
15 18.04.17 250 (З) 4{13}  10 км    10/4 1000 м средняя, верхняя 
[Sc|Ac trans|Ci fib]
+21.8 +4.8 33 +22  1006.2  752  280    +25.2       
18 18.04.17 220 (ЮЗ) 3{10}  10 км    6/6 1000 м 
[Sc]
+17.2 +6.7 50 +18  1008.3  754  285           
21 18.04.17 270 (З) 5-10{13}  10 км  слаб. ливневой дождь  10/6 600 м кучево-дожд., средняя 
[Cb cap|Ac und]
+12.2 +7 70 +11  1010.8  2.4  755  290           
00 19.04.17 210 (ЮЗ) 2{12}  10 км  в посл. час ливневой дождь  8/8 600 м кучево-дожд. 
[Cb cap]
+9.7 +6.7 82 +10  1011.3  0.5  756  293           
03 19.04.17 240 (ЮЗ) 4{12}  10 км    4/4 300 м 
[Frnb]
+8.5 +3.4 70 +7  1011.5  0.2  756  295  +8.5    0.7     
06 19.04.17 250 (З) 5-16{16}  10 км    8/8 600 м кучево-дожд. 
[Cb cap]
+10.9 +2.5 56 +10  1012.1  0.6  756  293           
09 19.04.17 290 (З) 5-20{20}  10 км  {ливн. осадки}  10/9 600 м кучево-дожд., средняя 
[Cb cap|Ac und]
+9.5 +2.7 62 +8  1015.3  3.2  759  295           
12 19.04.17 300 (СЗ) 6-20{20}  10 км  в посл. час ливневой дождь  10/10 600 м кучево-дожд. 
[Cb cap]
+8.6 +0.9 58 +7  1018.7  3.3  761  297           
15 19.04.17 270 (З) 3{15}  10 км  в посл. час ливневой дождь  9/9 600 м кучево-дожд. 
[Cb cap]
+7.5 +5 84 +7  1020  1.3  762  298    +12.1  0.3     
18 19.04.17 280 (З) 4{12}  10 км  {ливн. осадки}  10/10 600 м кучево-дожд. 
[Cb cap]
+6.7 +2.1 72 +5  1022  764  300           
21 19.04.17 300 (СЗ) 3{11}  10 км    10/9 600 м кучево-дожд., средняя 
[Cb cap|Ac und]
+6.9 +2.3 72 +6  1023  764  300           
00 20.04.17 310 (СЗ) 10 км    8/8 600 м кучево-дожд. 
[Cb cap]
+6.1 +2.2 76 +6  1022.3  -0.9  764  301           
03 20.04.17 050 (СВ) 10 км    6/0 верхняя 
[Ci fib]
+4.6 +2.1 84 +5  1021.7  -0.6  764  302  +4.5         
06 20.04.17 100 (В) 10 км    10/10 1000 м кучево-дожд. 
[Cb cap]
+6.7 +3.4 79 +7  1021.5  -0.2  763  300  +4.5         
09 20.04.17 120 (ЮВ) 10 км    9/0 средняя, верхняя 
[Ac trans|Ci fib]
+11.1 +2.9 57 +11  1019.6  -1.8  762  295           
12 20.04.17 120 (ЮВ) 10 км    1/0 средняя 
[Ac trans]
+15.2 +2.7 43 +15  1016.9  -2.6  760  290           
15 20.04.17 100 (В) 10 км    3/0 
+16.4 +3.8 43 +16  1014.6  -2.3  758  288    +17.1       
18 20.04.17 090 (В) 10 км    ясно 
+12.5 +5.6 63 +12  1013.9  -0.8  758  291           
21 20.04.17 130 (ЮВ) 10 км    ясно 
+9.7 +5.3 74 +9  1011.6  -2.3  756  293           
00 21.04.17 060 (СВ) 10 км    10/8 1000 м средняя 
[Sc|Ac und]
+9.9 +5.3 73 +9  1008.9  -2.7  754  292           
03 21.04.17 260 (З) 10 км  {ливн. осадки}  10/10 1000 м кучево-дожд. 
[Cb cap]
+9.2 +6.7 84 +10  1010.5  1.6  755  293  +8.9    0.5     
06 21.04.17 190 (Ю) 4000 м  слаб. ливневой дождь  10/10 600 м кучево-дожд. 
[Cb cap]
+9.1 +7.7 91 +10  1011.9  1.4  756  294  +8.7         
09 21.04.17 270 (З) 10 км  {ливн. осадки}  10/10 600 м кучево-дожд. 
[Cb cap]
+11.2 +8.1 81 +11  1013.7  1.8  758  292           
12 21.04.17 230 (ЮЗ) 2{12}  4000 м  слаб. ливневой дождь  10/10 600 м кучево-дожд. 
[Cb cap]
+7.8 +5.8 87 +8  1014.8  1.1  758  296           
15 21.04.17 240 (ЮЗ) 4000 м  слаб. ливневой дождь  10/10 300 м кучево-дожд. 
[Cb cap]
+7.7 +5.3 85 +8  1015.1  0.3  759  296    +11.4     
18 21.04.17 190 (Ю) 10 км  {ливн. осадки}  10/8 600 м кучево-дожд., средняя 
[Cb cap|Ac und]
+7.1 +5.3 88 +7  1015  -0.1  759  297           
21 21.04.17 240 (ЮЗ) 10 км    1/1 1000 м 
[Sc]
+7.1 +2.3 71 +6  1014.2  -0.8  758  297           
00 22.04.17 260 (З) 10 км  слаб. ливневой дождь  10/10 1000 м кучево-дожд. 
[Cb cap]
+6.6 +1.7 71 +5  1013.1  -1.1  757  298           
03 22.04.17 270 (З) 5{11}  10 км  в посл. час ливневой дождь  10/10 600 м кучево-дожд. 
[Cb cap]
+6.4 +2 73 +5  1013.5  0.4  757  298  +5.8    0.6     
06 22.04.17 280 (З) 3{10}  4000 м  слаб. ливневой дождь  10/10 300 м кучево-дожд. 
[Cb cap]
+6.8 +3.8 81 +6  1016.1  2.6  759  298           
09 22.04.17 270 (З) 3-11{14}  10 км  {ливн. осадки}  9/8 600 м кучево-дожд., средняя 
[Cb cap|Ac trans]
+8.1 +2.1 66 +7  1020.3  4.1  762  298           
12 22.04.17 270 (З) 5-14{14}  10 км  {ливн. осадки}  9/9 600 м 
[Sc]
+12.7 +0.2 42 +12  1020.4  0.2  763  294           
15 22.04.17 250 (З) 3-11{14}  10 км    10/5 600 м средняя, верхняя 
[Sc|Ac trans|Ci fib]
+10.5 +0.9 51 +10  1019.4  -1  762  295    +13.4  0.8     
18 22.04.17 270 (З) 4{10}  10 км    3/1 600 м верхняя 
[Sc|Ci fib]
+8.7 +1.9 62 +8  1019.2  -0.3  762  297           
21 22.04.17 320 (СЗ) 10 км    10/10 300 м 
[St]
+8.1 +3.2 71 +9  1017.1  -2  760  297           
00 23.04.17 060 (СВ) 10 км    10/10 300 м 
[St]
+7.9 +3.4 73 +9  1015.2  -1.9  759  297           
03 23.04.17 070 (В) 4000 м  слаб. ливневой дождь  10/10 200 м кучево-дожд. 
[Cb cap]
+6.8 +5.7 93 +7  1012.9  -2.3  757  297  +6.8       
06 23.04.17 070 (В) 10 км    10/10 200 м 
+7.1 +5.5 90 +7  1009.4  -3.5  754  295  +6.4         
09 23.04.17 090 (В) 3-10{10}  4000 м  слаб. ливневой дождь  10/10 200 м кучево-дожд. 
[Cb cap]
+7.5 +5.3 86 +7  1003.6  -5.8  750  293           
12 23.04.17 290 (З) 2{10}  4000 м  слаб. ливневой дождь, в посл. час гроза  10/10 200 м кучево-дожд. 
[Cb cap]
+8.3 +6.4 88 +8  1003.4  -0.2  750  292           
15 23.04.17 тихо ()   10 км  {гроза, ливн. осадки}  10/10 300 м кучево-дожд. 
[Cb cap]
+8.1 +6.8 91 +8  1000  -3.4  747  291    +9.5     
18 23.04.17 270 (З) 4000 м  слаб. дождь{гроза, ливн. осадки}  10/10 100 м 
[Frnb]
+7.1 +6.2 94 +7  1003.8  3.8  750  294           
21 23.04.17 270 (З) 5-13{13}  10 км  {дождь}  10/10 300 м кучево-дожд. 
[Cb cap]
+5.3 +2.6 83 +3  1010.3  6.5  755  298           
00 24.04.17 270 (З) 4-12{12}  10 км  {дождь}  10/10 600 м кучево-дожд. 
[Cb cap]
+6.1 +3 80 +5  1010.3  1.9  756  298           
03 24.04.17 300 (СЗ) 10 км    10/9 300 м средняя 
[St|Ac As]
+7.4 +5.6 88 +7  1013.4  1.2  757  296  +4.5       
06 24.04.17 210 (ЮЗ) 10 км    9/8 1000 м кучево-дожд., средняя 
[Cb cap|Ac trans]
+9.7 +6.1 78 +9  1012.9  -0.5  757  294           
09 24.04.17 210 (ЮЗ) 6-13{14}  4000 м  слаб. ливневой дождь  10/10 300 м кучево-дожд. 
[Cb cap]
+8.7 +6.4 85 +7  1013.6  0.7  758  295           
12 24.04.17 270 (З) 6-13{13}  10 км  в посл. час ливневой дождь  10/8 600 м кучево-дожд., средняя, верхняя 
[Cb cap|Ac trans|Ci fib]
+10.1 +5.5 73 +9  1016.5  2.9  760  294           
15 24.04.17 270 (З) 3{13}  10 км    3/3 1000 м кучево-дожд. 
[Cb cap]
+9.6 +2.5 61 +9  1018.3  1.8  761  296    +11.1     
18 24.04.17 260 (З) 10 км    ясно 
+6.6 +3.8 82 +5  1021  2.6  763  300           
21 24.04.17 290 (З) 10 км    10/0 средняя 
[Ac und]
+6.6 +3.5 81 +6  1022  764  300           
00 25.04.17 250 (З) 10 км    ясно 
+5.6 +2.9 83 +5  1023.3  1.3  765  302           
03 25.04.17 240 (ЮЗ) 10 км    ясно 
+4.5 +2.2 85 +4  1025.8  2.5  767  304  +4.5         
06 25.04.17 290 (З) 10 км    5/5 600 м кучево-дожд. 
[Cb cap]
+9.3 +3.8 68 +9  1027.6  1.8  768  299  +4.5         
09 25.04.17 310 (СЗ) 10 км    8/8 600 м кучево-дожд. 
[Cb cap]
+13.4 +1.9 46 +13  1028.7  1.2  769  295           
12 25.04.17 330 (СЗ) 5-11{11}  10 км  в посл. час ливневой дождь  8/8 600 м кучево-дожд. 
[Cb cap]
+12.1 +3.6 56 +11  1028.8  0.1  769  296           
15 25.04.17 250 (З) 2{12}  10 км  в посл. час ливневой дождь  9/9 600 м кучево-дожд. 
[Cb cap]
+9.9 +5.3 73 +10  1030.2  1.4  770  299    +14     
18 25.04.17 230 (ЮЗ) 10 км  {ливн. осадки}  1/0 средняя 
[Ac trans]
+8.4 +4.8 78 +9  1031.1  0.8  771  300           
21 25.04.17 200 (Ю) 10 км    ясно 
+5.8 +4.4 91 +7  1030.7  -0.4  770  303           
00 26.04.17 100 (В) 10 км    ясно 
+4.7 +3.5 92 +6  1030  -0.7  770  304           
03 26.04.17 100 (В) 10 км    ясно 
+4.3 +3.1 92 +4  1030  -0.1  770  305  +3.6        влажная 
06 26.04.17 100 (В) 10 км    ясно 
+11.3 +2.3 54 +11  1029.9  0.1  770  298  +4         
09 26.04.17 100 (В) 10 км    ясно 
+14.9 +3.2 45 +15  1028.8  -1.1  769  293           
12 26.04.17 100 (В) 10 км    ясно 
+18.1 +1.7 33 +19  1027  -1.7  768  290           
15 26.04.17 090 (В) 10 км    ясно 
+18.7 +1.3 31 +20  1025.5  -1.5  767  289    +19.1       
18 26.04.17 080 (В) 10 км    ясно 
+15.4 +3.4 45 +17  1024.9  -0.6  766  292           
21 26.04.17 130 (ЮВ) 10 км    ясно 
+11.9 +3.2 55 +13  1024.4  -0.6  766  295           
00 27.04.17 120 (ЮВ) 10 км    ясно 
+8.1 +3.8 74 +9  1023.8  -0.7  765  299           
03 27.04.17 120 (ЮВ) 10 км    ясно 
+6.1 +3 80 +7  1023.9  0.1  765  301  +6.1        влажная 
06 27.04.17 290 (З) 10 км    ясно 
+11.8 +4.5 61 +13  1023.9  0.1  765  295  +6         
09 27.04.17 040 (СВ) 10 км    ясно 
+18.7 +7 46 +20  1022.9  -0.9  765  287           
12 27.04.17 тихо ()   10 км    ясно 
+20.2 +10.4 53 +22  1021.7  -1.2  764  285           
15 27.04.17 310 (СЗ) 10 км    ясно 
+23.5 +9 40 +24  1020.6  -1.1  763  282    +24.4       
18 27.04.17 100 (В) 10 км    ясно 
+16.9 +11 68 +20  1020.9  0.3  763  288           
21 27.04.17 130 (ЮВ) 10 км    ясно 
+13.7 +7 64 +15  1020.9  -0.1  763  292           
00 28.04.17 тихо ()   10 км    ясно 
+9.5 +7 84 +10  1020.3  -0.7  762  296           
03 28.04.17 130 (ЮВ) 10 км    ясно 
+8.9 +5.1 77 +10  1020.6  0.3  763  297  +8.9        влажная 
06 28.04.17 220 (ЮЗ) 10 км    ясно 
+16.2 +6.7 53 +18  1020.4  763  289  +8.7         
09 28.04.17 240 (ЮЗ) 10 км    ясно 
+21.7 +7.1 39 +22  1019.8  -0.6  762  283           
12 28.04.17 330 (СЗ) 10 км    ясно 
+23.4 +6.7 34 +23  1019.2  -0.6  762  282           
15 28.04.17 310 (СЗ) 10 км    ясно 
+23 +6.7 35 +23  1018.2  -0.9  761  282    +24.6       
18 28.04.17 220 (ЮЗ) 10 км    ясно 
+16.4 +9.9 65 +19  1018.7  0.4  761  288           
21 28.04.17 240 (ЮЗ) 10 км    ясно 
+12.2 +8.8 80 +13  1018.4  -0.4  761  292           
00 29.04.17 тихо ()   10 км    ясно 
+9.7 +8.2 90 +10  1017.7  -0.7  761  295           
03 29.04.17 тихо ()   10 км    ясно 
+9.4 +7.3 87 +9  1018  0.3  761  295  +8.6         
06 29.04.17 070 (В) 10 км    ясно 
+17.3 +10.2 63 +20  1018  0.1  761  287           
09 29.04.17 090 (В) 10 км    ясно 
+24.2 +7.6 35 +24  1017.1  -0.8  760  280           
12 29.04.17 100 (В) 10 км    ясно 
+26.5 +6.2 27 +27  1016.1  -1  760  278           
15 29.04.17 090 (В) 10 км    ясно 
+25.7 +6.8 30 +26  1015.2  -0.9  759  278    +27.2       
18 29.04.17 060 (СВ) 10 км    ясно 
+21.6 +8.4 43 +22  1015.4  0.2  759  282           
21 29.04.17 070 (В) 10 км    ясно 
+18.7 +7.3 47 +20  1015  -0.5  759  285           
00 30.04.17 тихо ()   10 км    ясно 
+13.6 +9 74 +14  1014.9  -0.2  758  290           
03 30.04.17 120 (ЮВ) 10 км    ясно 
+13.9 +8.4 69 +15  1015.6  0.7  759  290  +13.5         
06 30.04.17 090 (В) 10 км    ясно 
+19.6 +11.2 58 +24  1015.6  0.2  759  283  +13         
09 30.04.17 020 (С) 10 км    ясно 
+25.4 +6.1 29 +25  1014.9  -0.7  759  279           
12 30.04.17 040 (СВ) 10 км    3/1 600 м средняя 
[Cu med, cong|Ac trans]
+26.9 +9.4 33 +27  1014.4  -0.5  758  277           
15 30.04.17 070 (В) 10 км    4/0 верхняя 
[Ci fib]
+26 +9 34 +26  1013.7  -0.7  758  277    +28.2       
18 30.04.17 100 (В) 10 км    3/0 верхняя 
[Ci fib]
+21 +9.7 48 +22  1014.3  0.6  758  282           
21 30.04.17 120 (ЮВ) 10 км    4/0 верхняя 
[Ci fib]
+16.1 +11.3 73 +20  1013.9  -0.5  758  286           
00 01.05.17 тихо ()   10 км    8/0 верхняя 
[Ci fib]
+13.1 +10 81 +14  1014.1  0.1  758  290           
03 01.05.17 тихо ()   10 км    6/0 верхняя 
[Ci fib]
+11.3 +9.3 87 +11  1015  0.9  759  292  +11.3        сухая 
06 01.05.17 270 (З) 10 км    ясно 
+19.9 +12 60 +25  1015.5  0.7  759  283           
09 01.05.17 080 (В) 10 км    ясно 
+25.2 +8.2 34 +25  1015.1  -0.4  759  279           
12 01.05.17 310 (СЗ) 10 км    ясно 
+27.7 +6.5 26 +28  1014.4  -0.7  758  276           
15 01.05.17 070 (В) 10 км    ясно 
+27.5 +7.4 28 +28  1014  -0.4  758  276    +28.3       
18 01.05.17 140 (ЮВ) 10 км    ясно 
+22.4 +9.2 43 +22  1014.8  0.8  759  281           
21 01.05.17 030 (СВ) 10 км    ясно 
+18.5 +11.5 64 +23  1014.8  -0.1  758  284           
00 02.05.17 310 (СЗ) 10 км    ясно 
+14.3 +10.9 80 +18  1014.8  758  288           
03 02.05.17 280 (З) 10 км    ясно 
+13.1 +11.4 89 +17  1015.1  0.2  759  290  +13.1         
Время (UTC), дата Ветер
(°,м/с) 
Видим.   Явления Облачность Т
(°С)
Тd
(°С)
f(%) Тe
(°С)
Pmin
(гПа)
dP
(гПа)
Po
(мм)
O2
(г/м3)
Тmin Tmax R s Состояние
почвы